Nassau, Bahamas

3:13 PM EDT on June 23, 2017 (GMT -0400)
Nassau International

Weather History for MYNN - June, 2013

Change the Weather History Date:

Wednesday, June 19, 2013

  Actual Average Record
Temperature  
Mean Temperature 85 °F -  
Max Temperature 90 °F 88 °F 93 °F (2011)
Min Temperature 80 °F 74 °F 73 °F (2002)
Cooling Degree Days 20    
Growing Degree Days 35 (Base 50)    
Moisture  
Dew Point 73 °F    
Average Humidity 69    
Maximum Humidity 84    
Minimum Humidity 50    
Precipitation  
Precipitation 0.00 in 0.24 in - ()
Sea Level Pressure  
Sea Level Pressure 30.06 in    
Wind  
Wind Speed 6 mph ()    
Max Wind Speed 14 mph    
Max Gust Speed -    
Visibility 6.8 miles    
Events      
Averages and records for this station are not official NWS values.
T = Trace of Precipitation, MM = Missing Value Source: Averaged Metar Reports

Daily Weather History Graph

Daily Weather History Graph

Search for Another Location

Airport or City:

Trip Planner

Search our weather history database for the weather conditions in past years. The results will help you decide how hot, cold, wet, or windy it might be!

Date:

Astronomy

Jun. 19, 2013 Rise Set
Actual Time 6:20 AM EDT 8:02 PM EDT
Civil Twilight 5:54 AM EDT 8:28 PM EDT
Nautical Twilight 5:23 AM EDT 8:59 PM EDT
Astronomical Twilight 4:51 AM EDT 9:31 PM EDT
Moon 4:08 PM EDT (6/19) 2:44 AM EDT (6/19)
Length of Visible Light 14h 33m
Length of Day
13h 41m
Waxing Gibbous, 80% of the Moon is Illuminated
Jun 19
Waxing Gibbous
Jun 23
Full
Jun 30
Last Quarter
Jul 8
New
Jul 15
First Quarter

Hourly Weather History & Observations

Time (EDT) Temp. Heat Index Dew Point Humidity Pressure Visibility Wind Dir Wind Speed Gust Speed Precip Events Conditions
12:00 AM 82.4 °F 88.2 °F 73.4 °F 74% 30.07 in 6.2 mi SSE 3.5 mph - N/A   Scattered Clouds
1:00 AM 82.4 °F 88.2 °F 73.4 °F 74% 30.05 in 6.2 mi SSE 8.1 mph - N/A   Partly Cloudy
2:00 AM 82 °F - 75 °F 73% 30.04 in 8 mi SE 4.6 mph - -   Scattered Clouds
2:00 AM 82.4 °F 89.5 °F 75.2 °F 79% 30.04 in 6.2 mi ESE 4.6 mph - N/A   Partly Cloudy
3:00 AM 82.4 °F 89.5 °F 75.2 °F 79% 30.03 in 6.2 mi ESE 4.6 mph - N/A   Scattered Clouds
4:00 AM 80.6 °F 85.4 °F 73.4 °F 79% 30.03 in 6.2 mi ESE 4.6 mph - N/A   Mostly Cloudy
5:00 AM 81 °F - 75 °F 78% 30.04 in 8 mi ESE 5.8 mph - -   Scattered Clouds
5:00 AM 80.6 °F 86.2 °F 75.2 °F 84% 30.03 in 6.2 mi ESE 5.8 mph - N/A   Partly Cloudy
6:00 AM 80.6 °F 85.4 °F 73.4 °F 79% 30.04 in 6.2 mi SE 3.5 mph - N/A   Partly Cloudy
8:00 AM 82 °F - 73 °F 68% 30.09 in 9 mi SSE 5.8 mph - -   Scattered Clouds
8:00 AM 82.4 °F 88.2 °F 73.4 °F 74% 30.08 in 6.2 mi SSE 5.8 mph - N/A   Partly Cloudy
9:00 AM 84.2 °F 89.6 °F 71.6 °F 66% 30.09 in 6.2 mi SE 6.9 mph - N/A   Partly Cloudy
10:00 AM 84.2 °F 89.6 °F 71.6 °F 66% 30.08 in 6.2 mi SSE 11.5 mph - N/A   Partly Cloudy
11:00 AM 86 °F - - % 30.09 in 9 mi SE 9.2 mph - -   Partly Cloudy
11:00 AM 86.0 °F 95.1 °F 75.2 °F 70% 30.09 in 6.2 mi SE 9.2 mph - N/A   Scattered Clouds
12:00 PM 86.0 °F 91.8 °F 71.6 °F 62% 30.09 in 6.2 mi ESE 10.4 mph - N/A   Scattered Clouds
1:00 PM 86.0 °F 91.8 °F 71.6 °F 62% 30.08 in 6.2 mi SSE 9.2 mph - N/A   Scattered Clouds
2:00 PM - - - % 30.06 in 9 mi ESE 9.2 mph - -   Partly Cloudy
2:00 PM 87.8 °F 95.6 °F 73.4 °F 62% 30.06 in 6.2 mi ESE 9.2 mph - N/A   Scattered Clouds
3:00 PM 86.0 °F 91.8 °F 71.6 °F 62% 30.06 in 6.2 mi ESE 11.5 mph - N/A   Scattered Clouds
4:00 PM 86.0 °F 91.8 °F 71.6 °F 62% 30.04 in 6.2 mi ESE 13.8 mph - N/A   Scattered Clouds
5:00 PM 88 °F - 72 °F 50% 30.04 in 8 mi SE 11.5 mph - -   Partly Cloudy
5:00 PM 87.8 °F 93.8 °F 71.6 °F 58% 30.03 in 6.2 mi SE 11.5 mph - N/A   Scattered Clouds
6:00 PM 86.0 °F 91.8 °F 71.6 °F 62% 30.04 in 6.2 mi SE 11.5 mph - N/A   Scattered Clouds
7:00 PM 84.2 °F 89.6 °F 71.6 °F 66% 30.06 in 6.2 mi ESE 6.9 mph - N/A   Scattered Clouds
8:00 PM 84 °F - 73 °F 62% 30.06 in 8 mi ESE 11.5 mph - -   Partly Cloudy
8:00 PM 84.2 °F 90.9 °F 73.4 °F 70% 30.06 in 6.2 mi ESE 11.5 mph - N/A   Scattered Clouds
9:00 PM 82.4 °F 87.2 °F 71.6 °F 70% 30.08 in 6.2 mi East 4.6 mph - N/A   Scattered Clouds
10:00 PM 82.4 °F 87.2 °F 71.6 °F 70% 30.08 in 6.2 mi East 3.5 mph - N/A   Partly Cloudy
11:00 PM 82 °F - - % 30.09 in 8 mi East 4.6 mph - -   Scattered Clouds
11:00 PM 82.4 °F 89.5 °F 75.2 °F 79% 30.09 in 6.2 mi ESE 4.6 mph - N/A   Partly Cloudy